This demonstration page uses our WeatherBlox Daily Observations layout. Learn more.

Left ArrowRight Arrow

39.01783, -85.05884

Hourly Observations for June 17, 2015

Temp ( °F °C ) Dew Point ( °F °C ) Humidity (%) Winds ( mph kmh ) Pressure ( in mb ) Visibility ( mi km ) Precip ( " mm )
5:52 am 05:52 Cloudy with Light Rain 72 22.2 71 21.7 97 97 SSW 5 7 30.05 1018 5 8 N/A
6:52 am 06:52 Cloudy with Light Rain 72 22.2 70 21.1 94 94 SW 6 9 30.05 1018 3 5 0.01 0.25
7:10 am 07:10 Cloudy with Light Thunderstorms 72 22 70 21 94 94 SW 8 13 30.06 1018 3 5 N/A
7:13 am 07:13 Cloudy with Thunderstorms 72 22 70 21 94 94 SW 9 15 30.06 1018 2 3 0.01 0.25
7:18 am 07:18 Cloudy with Heavy Thunderstorms 72 22 70 21 94 94 W 21 33 30.06 1018 2 2 N/A
7:23 am 07:23 Cloudy with Thunderstorms 70 21 68 20 94 94 W 12 19 30.06 1018 2 3 0.43 10.92
7:29 am 07:29 Mostly Cloudy with Light Thunderstorms 72 22 68 20 88 88 WSW 7 11 30.06 1018 5 8 0.46 11.68
7:35 am 07:35 Cloudy with Light Rain 72 22 68 20 88 88 WSW 6 9 30.06 1018 6 10 0.46 11.68
7:52 am 07:52 Cloudy with Light Rain 71 21.7 68 20 90 90 SW 7 11 30.06 1018 8 13 0.48 12.19
8:52 am 08:52 Cloudy with Light Rain 70 21.1 69 20.6 97 97 S 6 9 30.05 1018 7 11 0.02 0.51
9:52 am 09:52 Cloudy 73 22.8 70 21.1 90 90 SSW 7 11 30.04 1017 10 16 0.01 0.25
10:44 am 10:44 Cloudy 75 24 72 22 89 89 SW 8 13 30.03 1017 10 16 N/A
10:52 am 10:52 Cloudy 75 23.9 70 21.1 84 84 SW 8 13 30.05 1018 10 16 N/A
11:30 am 11:30 Cloudy 75 24 72 22 89 89 SSW 8 13 30.06 1018 10 16 N/A
11:52 am 11:52 Cloudy 76 24.4 71 21.7 85 85 SW 9 15 30.05 1018 10 16 N/A
12:26 pm 12:26 Cloudy 77 25 70 21 79 79 SW 8 13 30.06 1018 10 16 N/A
12:52 pm 12:52 Cloudy 79 26.1 70 21.1 74 74 WSW 10 17 30.05 1018 10 16 N/A
1:08 pm 13:08 Cloudy 79 26 70 21 74 74 SW 12 19 30.06 1018 10 16 N/A
1:52 pm 13:52 Cloudy 79 26.1 71 21.7 77 77 WSW 9 15 30.04 1017 10 16 N/A
2:52 pm 14:52 Cloudy 81 27.2 70 21.1 69 69 WSW 12 19 30.02 1017 10 16 N/A
3:52 pm 15:52 Mostly Cloudy 83 28.3 70 21.1 65 65 W 12 19 29.99 1016 10 16 N/A
4:52 pm 16:52 Mostly Cloudy 84 28.9 70 21.1 63 63 W 12 19 29.99 1016 10 16 N/A
5:52 pm 17:52 Cloudy 82 27.8 70 21.1 67 67 NW 9 15 30.00 1016 10 16 N/A
6:52 pm 18:52 Cloudy 81 27.2 71 21.7 72 72 W 3 6 29.98 1015 10 16 N/A
7:52 pm 19:52 Cloudy 80 26.7 71 21.7 74 74 W 6 9 29.99 1016 10 16 N/A
8:52 pm 20:52 Cloudy 78 25.6 72 22.2 82 82 N N/A 30.00 1016 10 16 N/A
9:05 pm 21:05 Cloudy with Thunderstorms 79 26 72 22 79 79 NNW 13 20 30.00 1016 10 16 N/A
9:12 pm 21:12 Windy with Storms Likely 79 26 70 21 74 74 NNW 22 35 30.00 1016 4 6 N/A
9:27 pm 21:27 Cloudy with Light Thunderstorms 73 23 70 21 89 89 WNW 9 15 30.00 1016 10 16 0.08 2.03
9:35 pm 21:35 Cloudy with Light Rain 73 23 70 21 89 89 W 6 9 30.00 1016 6 10 0.08 2.03
9:52 pm 21:52 Cloudy 73 22.8 70 21.1 90 90 WSW 5 7 30.02 1017 10 16 0.10 2.54
10:52 pm 22:52 Cloudy with Light Rain 74 23.3 70 21.1 88 88 WSW 3 6 30.02 1017 10 16 N/A
11:52 pm 23:52 Cloudy 73 22.8 71 21.7 94 94 N N/A 30.02 1017 10 16 N/A

Powered by AerisWeather